• Processing (Info)

  • MPEC 2014-G77 : 2014 GC49

    The following Minor Planet Electronic Circular may be linked-to from your own Web pages, but must not otherwise be redistributed electronically.

    A form allowing access to any MPEC is at the bottom of this page.


    Read MPEC 2014-G76 Read MPEC 2014-G78


    M.P.E.C. 2014-G77                                Issued 2014 Apr. 12, 10:33 UT
    
         The Minor Planet Electronic Circulars contain information on unusual
             minor planets and routine data on comets.  They are published
       on behalf of Commission 20 of the International Astronomical Union by the
              Minor Planet Center, Smithsonian Astrophysical Observatory,
                              Cambridge, MA 02138, U.S.A.
    
                 Prepared using the Tamkin Foundation Computer Network
    
                                  MPC@CFA.HARVARD.EDU
                URL https://www.minorplanetcenter.net/    ISSN 1523-6714
    
                                       2014 GC49
    
    Observations:
         K14G49C* C2014 04 04.21546 10 46 52.62 +13 09 05.9          20.9 VqEG077G96
         K14G49C  C2014 04 04.22052 10 46 48.60 +13 10 04.2          19.7 VqEG077G96
         K14G49C  C2014 04 04.22555 10 46 44.57 +13 11 03.3          20.0 VqEG077G96
         K14G49C  C2014 04 04.23062 10 46 40.60 +13 12 00.5          20.3 VqEG077G96
         K14G49C  C2014 04 04.31657 10 45 39.78 +13 26 36.7          20.2 VqEG077G96
         K14G49C  C2014 04 04.32454 10 45 34.78 +13 27 50.6          20.6 VqEG077G96
         K14G49C  C2014 04 04.33252 10 45 29.96 +13 29 02.0          20.3 VqEG077G96
         K14G49C  C2014 04 04.34052 10 45 25.15 +13 30 15.0          21.7 VqEG077G96
         K14G49C  C2014 04 04.34906 10 45 20.40 +13 31 27.7          20.5 VqEG077G96
         K14G49C  C2014 04 04.35052 10 45 19.56 +13 31 40.6          20.1 VqEG077G96
         K14G49C  C2014 04 04.35344 10 45 17.98 +13 32 04.8          20.2 VqEG077G96
         K14G49C KC2014 04 05.16236 10 42 46.32 +14 47 09.1          21.0 RoEG077291
         K14G49C KC2014 04 05.16756 10 42 44.74 +14 47 27.6          21.1 RoEG077291
    
    Observer details:
    291 LPL/Spacewatch II.  Observer R. S. McMillan.  1.8-m f/2.7 reflector + CCD.
    G96 Mt. Lemmon Survey.  Observer A. D. Grauer.  Measurers E. J. Christensen,
        A. R. Gibbs, A. D. Grauer, R. E. Hill, J. A. Johnson, R. A. Kowalski,
        S. M. Larson, F. C. Shelly.  1.5-m reflector + CCD.
    
    Orbital elements:
    2014 GC49                                                Earth MOID = 0.0005 AU
    Epoch 2014 May 23.0 TT = JDT 2456800.5                  MPC
    M 171.62679              (2000.0)            P               Q
    n   1.56479226     Peri.  207.51322     +0.75725266     -0.65261197
    a   0.7347929      Node   193.32290     +0.61792393     +0.72867982
    e   0.6439733      Incl.    6.43017     +0.21151458     +0.20766158
    P   0.63           H   28.6           G   0.15           U   9
    Residuals in seconds of arc
    140404 G96  0.1-  0.1-    140404 G96  0.3+  0.3-    140404 G96  0.3+  0.3-
    140404 G96  0.3+  0.6-    140404 G96  0.2+  0.7-    140405 291  0.2+  0.2-
    140404 G96  0.3-  0.7+    140404 G96 (1.5-  1.6+)   140405 291  0.2-  0.1+
    140404 G96  0.1-  0.4+    140404 G96  0.1+  0.1+
    140404 G96  1.2+  1.2-    140404 G96  0.3-  0.5+
    
    Ephemeris:
    2014 GC49                a,e,i = 0.73, 0.64, 6                   q = 0.2616
    Date    TT    R. A. (2000) Decl.     Delta      r     Elong.  Phase     V
    2014 03 13    22 46 21.2 -14 38 16   0.2128  0.7914    15.9   159.8
    ...
    2014 03 28    22 39 30.5 -16 03 28   0.05979 0.9480    32.3   145.7    30.1
    ...
    2014 04 05    10 43 02.4 +14 39 51   0.01832 1.0147   141.4    38.0    21.5
    ...
    2014 04 11    10 39 49.6 +16 04 32   0.07691 1.0570   134.2    42.8    24.8
    2014 04 12    10 39 55.8 +16 05 49   0.08670 1.0635   133.2    43.4    25.1
    2014 04 13    10 40 05.2 +16 06 15   0.09651 1.0699   132.3    43.9    25.4
    ...
    2014 04 19    10 41 50.3 +15 58 11   0.1556  1.1047   126.9    46.6    26.5
    ...
    2014 04 27    10 45 44.9 +15 31 13   0.2348  1.1430   120.3    49.5    27.6
    ...
    2014 05 12    10 56 49.7 +14 11 44   0.3832  1.1905   108.8    53.4    28.9
    
    A. U. Tomatic                (C) Copyright 2014 MPC           M.P.E.C. 2014-G77
    

    Read MPEC 2014-G76 Read MPEC 2014-G78


    MPEC number:

    Enter an MPEC number in one of the following forms:

    • 1997-B01 (the full form)
    • J97B01 (the packed version of the full form)
    • B01 (the abbreviated form)